Sherman-Denison, TX

9:20 PM CDT on March 23, 2017 (GMT -0500)
Sherman - Denison

Weather History for KGYI - July, 2013

Change the Weather History Date:

Saturday, July 6, 2013

  Actual Average (KDFW) Record (KDFW)
Temperature  
Mean Temperature 84 °F -  
Max Temperature 94 °F 92 °F 105 °F (1996)
Min Temperature 73 °F 73 °F 59 °F (1972)
Cooling Degree Days 18    
Growing Degree Days 34 (Base 50)    
Moisture  
Dew Point 61 °F    
Average Humidity 46    
Maximum Humidity 60    
Minimum Humidity 31    
Precipitation  
Precipitation 0.00 in - - ()
Sea Level Pressure  
Sea Level Pressure 29.95 in    
Wind  
Wind Speed 10 mph (SE)    
Max Wind Speed 14 mph    
Max Gust Speed 18 mph    
Visibility 10 miles    
Events      
Averages and records for this station are not official NWS values.
T = Trace of Precipitation, MM = Missing Value Source: NWS Daily Summary

Daily Weather History Graph

Daily Weather History Graph

Search for Another Location

Airport or City:

Trip Planner

Search our weather history database for the weather conditions in past years. The results will help you decide how hot, cold, wet, or windy it might be!

Date:

Astronomy

Jul. 06, 2013 Rise Set
Actual Time 6:22 AM CDT 8:40 PM CDT
Civil Twilight 5:53 AM CDT 9:09 PM CDT
Nautical Twilight 5:18 AM CDT 9:44 PM CDT
Astronomical Twilight 4:39 AM CDT 10:22 PM CDT
Moon 5:06 AM CDT (7/6) 7:25 PM CDT (7/6)
Length of Visible Light 15h 15m
Length of Day
14h 18m
Waning Crescent, 2% of the Moon is Illuminated
Jul 6
Waning Crescent
Jul 8
New
Jul 15
First Quarter
Jul 22
Full
Jul 29
Last Quarter

Hourly Weather History & Observations

Time (CDT) Temp. Heat Index Dew Point Humidity Pressure Visibility Wind Dir Wind Speed Gust Speed Precip Events Conditions
12:15 AM 79.7 °F - 59.4 °F 50% 29.96 in 10.0 mi ESE 9.2 mph - N/A   Clear
12:35 AM 79.3 °F - 59.4 °F 50% 29.96 in 10.0 mi SE 10.4 mph - N/A   Clear
12:55 AM 79.3 °F - 59.2 °F 50% 29.96 in 10.0 mi SE 10.4 mph - N/A   Clear
1:15 AM 79.3 °F - 59.0 °F 50% 29.97 in 10.0 mi SE 10.4 mph - N/A   Clear
1:35 AM 79.2 °F - 58.5 °F 49% 29.97 in 10.0 mi SE 9.2 mph - N/A   Clear
1:55 AM 79.0 °F - 58.1 °F 49% 29.96 in 10.0 mi SE 12.7 mph - N/A   Clear
2:15 AM 79.0 °F - 57.4 °F 47% 29.97 in 10.0 mi SE 12.7 mph - N/A   Clear
2:35 AM 78.6 °F - 57.6 °F 48% 29.96 in 10.0 mi SSE 13.8 mph - N/A   Clear
2:55 AM 77.9 °F - 58.1 °F 50% 29.96 in 10.0 mi SE 11.5 mph - N/A   Clear
3:15 AM 77.4 °F - 58.1 °F 51% 29.96 in 10.0 mi SE 12.7 mph - N/A   Clear
3:35 AM 77.0 °F - 58.1 °F 52% 29.95 in 10.0 mi SSE 11.5 mph - N/A   Clear
3:55 AM 76.1 °F - 58.3 °F 54% 29.95 in 10.0 mi SSE 10.4 mph - N/A   Clear
4:15 AM 75.6 °F - 58.3 °F 55% 29.95 in 10.0 mi SE 12.7 mph - N/A   Clear
4:35 AM 75.7 °F - 58.1 °F 54% 29.95 in 10.0 mi SE 12.7 mph - N/A   Clear
4:55 AM 75.7 °F - 57.7 °F 53% 29.95 in 10.0 mi SE 13.8 mph - N/A   Clear
5:15 AM 75.2 °F - 57.7 °F 54% 29.95 in 10.0 mi SSE 12.7 mph - N/A   Clear
5:35 AM 74.7 °F - 58.1 °F 56% 29.95 in 10.0 mi SSE 10.4 mph - N/A   Clear
5:55 AM 74.3 °F - 57.7 °F 56% 29.96 in 10.0 mi SSE 11.5 mph - N/A   Clear
6:15 AM 73.8 °F - 57.9 °F 58% 29.95 in 10.0 mi SE 10.4 mph - N/A   Clear
6:55 AM 73.4 °F - 58.8 °F 60% 29.96 in 10.0 mi SSE 6.9 mph - N/A   Clear
7:15 AM 73.9 °F - 59.0 °F 59% 29.96 in 10.0 mi SSE 5.8 mph - N/A   Clear
7:35 AM 74.5 °F - 59.7 °F 60% 29.97 in 10.0 mi SSE 8.1 mph - N/A   Clear
7:55 AM 75.4 °F - 60.3 °F 59% 29.97 in 10.0 mi SSE 6.9 mph - N/A   Clear
8:15 AM 76.3 °F - 61.2 °F 59% 29.97 in 10.0 mi SSE 8.1 mph - N/A   Clear
8:35 AM 77.9 °F - 61.9 °F 58% 29.98 in 10.0 mi SSE 6.9 mph - N/A   Clear
8:55 AM 80.1 °F 81.5 °F 63.0 °F 56% 29.98 in 10.0 mi South 8.1 mph - N/A   Clear
9:15 AM 81.7 °F 83.2 °F 63.9 °F 55% 29.97 in 10.0 mi SSW 6.9 mph - N/A   Clear
9:35 AM 82.9 °F 84.4 °F 64.2 °F 53% 29.97 in 10.0 mi SSW 8.1 mph - N/A   Clear
9:55 AM 83.8 °F 85.3 °F 64.4 °F 52% 29.97 in 10.0 mi SSW 4.6 mph - N/A   Clear
10:15 AM 85.3 °F 86.6 °F 64.4 °F 49% 29.97 in 10.0 mi South 9.2 mph 16.1 mph N/A   Clear
10:35 AM 85.6 °F 87.1 °F 64.6 °F 49% 29.97 in 10.0 mi South 6.9 mph - N/A   Clear
10:55 AM 86.9 °F 88.1 °F 64.0 °F 46% 29.97 in 10.0 mi South 8.1 mph - N/A   Clear
11:15 AM 88.0 °F 89.0 °F 63.7 °F 44% 29.97 in 10.0 mi SSW 5.8 mph - N/A   Clear
11:35 AM 89.6 °F 91.1 °F 64.2 °F 43% 29.97 in 10.0 mi SSE 4.6 mph - N/A   Clear
11:55 AM 89.2 °F 90.6 °F 64.0 °F 43% 29.97 in 10.0 mi SSE 5.8 mph - N/A   Clear
12:15 PM 90.1 °F 92.0 °F 64.6 °F 43% 29.97 in 10.0 mi ESE 10.4 mph 16.1 mph N/A   Scattered Clouds
12:35 PM 89.1 °F 89.6 °F 62.4 °F 41% 29.97 in 10.0 mi Calm Calm - N/A   Scattered Clouds
12:55 PM 91.2 °F 91.8 °F 62.2 °F 38% 29.96 in 10.0 mi SSE 11.5 mph - N/A   Scattered Clouds
1:15 PM 91.2 °F 91.1 °F 61.2 °F 36% 29.95 in 10.0 mi SSE 10.4 mph - N/A   Clear
1:35 PM 92.8 °F 92.8 °F 60.6 °F 34% 29.95 in 10.0 mi South 10.4 mph 18.4 mph N/A   Clear
1:55 PM 92.1 °F 92.4 °F 61.7 °F 36% 29.94 in 10.0 mi South 11.5 mph 16.1 mph N/A   Scattered Clouds
2:15 PM 92.8 °F 92.8 °F 61.0 °F 34% 29.94 in 10.0 mi South 13.8 mph - N/A   Clear
2:35 PM 92.3 °F 91.6 °F 59.4 °F 33% 29.94 in 10.0 mi ESE 12.7 mph 16.1 mph N/A   Scattered Clouds
2:55 PM 93.6 °F 93.8 °F 61.0 °F 34% 29.93 in 10.0 mi SE 6.9 mph 17.3 mph N/A   Scattered Clouds
3:15 PM 93.0 °F 93.4 °F 61.9 °F 35% 29.93 in 10.0 mi South 9.2 mph - N/A   Mostly Cloudy
3:35 PM 92.7 °F 92.5 °F 60.3 °F 34% 29.93 in 10.0 mi SSE 10.4 mph - N/A   Scattered Clouds
3:55 PM 94.5 °F 94.0 °F 59.9 °F 31% 29.92 in 10.0 mi SSE 11.5 mph - N/A   Scattered Clouds
4:15 PM 93.2 °F 92.9 °F 59.7 °F 33% 29.92 in 10.0 mi SE 11.5 mph - N/A   Scattered Clouds
4:35 PM 94.3 °F 93.7 °F 59.7 °F 31% 29.91 in 10.0 mi SE 13.8 mph - N/A   Clear
4:55 PM 93.7 °F 93.3 °F 59.4 °F 32% 29.91 in 10.0 mi SSE 11.5 mph 16.1 mph N/A   Scattered Clouds
5:15 PM 94.3 °F 93.7 °F 59.2 °F 31% 29.90 in 10.0 mi SSE 11.5 mph 17.3 mph N/A   Mostly Cloudy
5:35 PM 93.6 °F 93.1 °F 59.7 °F 32% 29.90 in 10.0 mi SSE 8.1 mph - N/A   Scattered Clouds
5:55 PM 92.8 °F 92.8 °F 60.6 °F 34% 29.89 in 10.0 mi ESE 13.8 mph - N/A   Scattered Clouds
6:15 PM 92.7 °F 91.8 °F 59.2 °F 32% 29.89 in 10.0 mi SE 12.7 mph 17.3 mph N/A   Clear
6:35 PM 92.7 °F 91.8 °F 59.2 °F 32% 29.89 in 10.0 mi SE 8.1 mph - N/A   Clear
6:55 PM 91.8 °F 91.2 °F 59.5 °F 34% 29.89 in 10.0 mi ESE 8.1 mph - N/A   Scattered Clouds
7:15 PM 90.9 °F 90.0 °F 59.2 °F 34% 29.90 in 10.0 mi ESE 11.5 mph - N/A   Clear
7:35 PM 90.0 °F 90.0 °F 61.2 °F 38% 29.90 in 10.0 mi East 9.2 mph - N/A   Clear
7:55 PM 88.5 °F 88.3 °F 60.4 °F 39% 29.90 in 10.0 mi East 8.1 mph - N/A   Clear
8:15 PM 87.1 °F 87.0 °F 60.8 °F 41% 29.90 in 10.0 mi ESE 6.9 mph - N/A   Clear
8:35 PM 85.8 °F 85.9 °F 61.2 °F 43% 29.91 in 10.0 mi East 5.8 mph - N/A   Clear
8:55 PM 84.2 °F 84.6 °F 61.3 °F 46% 29.92 in 10.0 mi East 5.8 mph - N/A   Clear
9:15 PM 82.6 °F 83.2 °F 61.7 °F 49% 29.93 in 10.0 mi East 5.8 mph - N/A   Clear
9:35 PM 82.0 °F 82.8 °F 61.7 °F 50% 29.94 in 10.0 mi East 6.9 mph - N/A   Clear
9:55 PM 81.5 °F 82.4 °F 61.9 °F 51% 29.95 in 10.0 mi East 4.6 mph - N/A   Clear
10:15 PM 80.6 °F 81.7 °F 62.2 °F 53% 29.96 in 10.0 mi East 4.6 mph - N/A   Clear
10:35 PM 79.9 °F - 62.6 °F 55% 29.97 in 10.0 mi East 5.8 mph - N/A   Clear
10:55 PM 79.9 °F - 62.6 °F 55% 29.97 in 10.0 mi ESE 8.1 mph - N/A   Clear
11:15 PM 80.2 °F 81.4 °F 62.2 °F 54% 29.97 in 10.0 mi ESE 9.2 mph - N/A   Clear
11:35 PM 79.9 °F - 62.1 °F 54% 29.98 in 10.0 mi East 8.1 mph - N/A   Clear
11:55 PM 79.3 °F - 62.1 °F 55% 29.98 in 10.0 mi ESE 8.1 mph - N/A   Clear